[[{"header":{"parameterUnit":"m.s-1","parameterCategory":1,"la1":30.2991,"la2":30.254,"lo1":-89.0895,"lo2":-89.0444,"dy":0.0017,"dx":0.0017,"nx":28,"ny":28,"refTime":"2024-07-20T09:00:00:Z","depth":0,"parameterNumber":2,"parameterNumberName":"U-component_of_WINDS"},"data":[0,0,0,0,0,0,0,0,0,0,0,0,0,0,0,0,0,0,0,0,0,0,0,0,0,0,0,0,0,0,0,0,0,0,0,0,0,0,0,0,0,0,0,0,0,0,0,0,0,0,0,0,0,0,0,0,0,0,-0.0109,-0.0107,0,0.0051,0.0052,0.0054,0.0106,0.0106,0.0105,0.0104,0.0268,0.0273,0.0278,0,0,0,0,0,0,0,0,0,0,0,0,0,-0.0369,-0.0365,-0.0109,-0.0107,-0.0105,0.005,0.0052,0.0055,0.0107,0.0106,0.0105,0.0104,0.0266,0.0272,0.0278,0,0,0,0,0,0,0,0,0,0,0,0,0,-0.0238,-0.0363,-0.0109,-0.006,-0.0054,0.005,0.0053,0.0055,0.0107,0.0106,0.0105,0.0104,0.0264,0.0271,0.0279,0.0346,0,0,0.0302,0.0305,0,0,0,0,0,0,0,0,-0.0245,-0.0228,-0.0069,-0.0063,-0.0056,0.0058,0.0021,0.0153,0.0107,0.0046,0.0104,0.0103,0.0199,0.0212,0.0244,0.0353,0.0361,0.0302,0.0307,0.031,0.0312,0,0,0,0,0,0,0,-0.0254,-0.0235,-0.0046,-0.0067,-0.0059,-0.0047,-0.0029,0.0046,0.0126,0.0051,0.0055,0.0073,0.0202,0.0236,0.0248,0.0363,0.0302,0.0309,0.0314,0.0316,0.0534,0.0535,0,0,0,0,0,0,-0.0272,-0.0243,-0.0051,-0.0041,-0.0155,-0.0041,-0.0021,0.0022,0.0125,0.014,0.0074,0.0075,0.0224,0.0239,0.0254,0.0339,0.031,0.0317,0.0321,0.0533,0.0534,0.0536,0,0,0,0,0,0,-0.0277,-0.0255,-0.0057,-0.0141,-0.0114,-0.0035,0.0013,0.0026,0.006,0.0143,0.0157,0.0094,0.0224,0.0243,0.0322,0.0345,0.0321,0.0327,0.0531,0.0533,0.0535,0.0508,0,0,0,0,0,0,-0.0285,-0.0257,-0.0231,-0.014,-0.011,0.0009,0.0014,0.003,0.0073,0.0076,0.0166,0.018,0.0225,0.0311,0.033,0.0355,0.0333,0.053,0.0532,0.0534,0.0508,0.0509,0.051,0,0,0,0,0,-0.0295,-0.0244,-0.0229,-0.0207,-0.0075,0.001,0.0027,0.0078,0.0074,0.0102,0.0154,0.0177,0.0339,0.0318,0.034,0.0368,0.0528,0.0531,0.0534,0.0507,0.0509,0.051,0,0,0,0,0,0,-0.0333,-0.0231,-0.0214,-0.0133,-0.0071,0.0019,0.0055,0.0078,0.0143,0.0143,0.0203,0.0223,0.0297,0.034,0.0316,0.0437,0.0435,0.0442,0.0406,0.0409,0.041,0.0399,0.0339,0,0,0,0,0,-0.0332,-0.0272,-0.0186,-0.0123,-0.0092,-0.0025,0.0015,0.0048,0.0115,0.0142,0.02,0.0264,0.033,0.0372,0.0436,0.0513,0.0533,0.0543,0.0544,0.0545,0.0551,0.0594,0.0599,0.0545,0.0545,0.0545,0,0,-0.033,-0.0267,-0.0232,-0.0129,-0.0076,-0.0015,-0.0002,0.0062,0.0108,0.0152,0.023,0.0274,0.035,0.0428,0.0465,0.0466,0.057,0.0549,0.0549,0.0555,0.0598,0.0603,0.0607,0.0547,0.0547,0.0546,0,0,-0.0294,-0.024,-0.0181,-0.013,-0.0051,-0.0007,0.0007,0.0092,0.0124,0.0203,0.0236,0.0291,0.0403,0.0455,0.0496,0.0549,0.0571,0.0568,0.0576,0.0617,0.0621,0.0625,0.0644,0.065,0.0573,0.0573,0.0573,0,-0.03,-0.0206,-0.0154,-0.0092,-0.0048,-0.0007,0.0052,0.01,0.0195,0.0224,0.0224,0.0363,0.0417,0.0507,0.052,0.0552,0.0569,0.0559,0.0616,0.0621,0.0626,0.0644,0.0651,0.0572,0.0572,0.0573,0.0573,0,-0.0219,-0.0154,-0.0117,-0.0026,0.0022,0.0082,0.0143,0.0185,0.0213,0.0257,0.0336,0.0401,0.048,0.0503,0.0532,0.0597,0.0595,0.0605,0.0604,0.0629,0.0647,0.0655,0.0571,0.0571,0.0572,0.0572,0,0,-0.0201,-0.0083,-0.0071,-0.0029,0.0059,0.011,0.0171,0.0247,0.0282,0.0346,0.0398,0.0491,0.0499,0.0546,0.058,0.0616,0.0653,0.0622,0.0624,0.0625,0.0728,0.0721,0.0728,0.0668,0.067,0.0671,0.0722,0,-0.0153,-0.0041,0.0007,0.0097,0.0156,0.0195,0.0248,0.0308,0.035,0.0406,0.0453,0.0517,0.0524,0.0552,0.059,0.0641,0.0675,0.0638,0.0718,0.072,0.0698,0.0738,0.0731,0.0776,0.0729,0.0731,0.0732,0,-0.0082,-0.0018,0.0077,0.0158,0.0184,0.0232,0.0304,0.0358,0.0425,0.0454,0.0504,0.0536,0.0601,0.0595,0.0685,0.0658,0.0694,0.0723,0.0726,0.0737,0.0728,0.0749,0.0792,0.0798,0.0743,0.0743,0.0742,0,-0.0079,0.0031,0.0102,0.0136,0.0231,0.0263,0.0304,0.0371,0.0413,0.0476,0.0504,0.0574,0.0612,0.0665,0.0715,0.0706,0.08,0.0798,0.0825,0.0824,0.0845,0.0843,0.0893,0.0866,0.0866,0.0866,0.0866,0,-0.003,0.0027,0.0105,0.0149,0.0213,0.0266,0.0329,0.0372,0.0431,0.0484,0.0521,0.0569,0.0632,0.0688,0.0727,0.0796,0.0813,0.0837,0.0847,0.0834,0.0831,0.0859,0.0857,0.0868,0.0867,0.0867,0.0867,0,-0.0015,0.004,0.012,0.0203,0.0225,0.0269,0.0339,0.0383,0.0426,0.0492,0.051,0.0578,0.0646,0.07,0.0789,0.0816,0.0887,0.0898,0.0864,0.087,0.0894,0.0891,0.0965,0.0977,0.094,0.0941,0.0941,0,0.0013,0.0058,0.0145,0.0183,0.0223,0.0284,0.0326,0.038,0.0423,0.0502,0.0536,0.0606,0.0665,0.0771,0.0829,0.0896,0.0909,0.093,0.092,0.0905,0.091,0.0907,0.0911,0.0932,0.0932,0.0932,0.0932,0,0.0056,0.0081,0.0141,0.021,0.026,0.0318,0.0376,0.0404,0.0468,0.0514,0.0583,0.0629,0.0719,0.0788,0.0861,0.0903,0.0928,0.0934,0.0944,0.0932,0.0911,0.0923,0.0868,0.0933,0.0933,0.0933,0.0933,0.0933,0.0079,0.012,0.0188,0.0253,0.0302,0.0355,0.04,0.0448,0.0507,0.0584,0.0612,0.0683,0.0748,0.0849,0.0891,0.0947,0.0949,0.0963,0.0967,0.097,0.0968,0.0901,0.096,0.096,0.096,0.096,0.096,0,0.0124,0.0169,0.0229,0.0309,0.036,0.0378,0.0443,0.0484,0.0546,0.0605,0.0662,0.0741,0.0807,0.0869,0.0938,0.0971,0.0984,0.0988,0.0986,0.0995,0.0962,0.0947,0.0976,0.0976,0.0976,0.0976,0.0976,0.0976,0.0154,0.0224,0.0256,0.035,0.0395,0.0465,0.05,0.0549,0.0596,0.0682,0.0738,0.0777,0.0836,0.091,0.0972,0.0988,0.1012,0.1012,0.1031,0.1,0.0998,0.0995,0.0981,0.1017,0.1017,0.1059,0.106,0.106]},{"header":{"parameterUnit":"m.s-1","parameterCategory":1,"la1":30.2991,"la2":30.254,"lo1":-89.0895,"lo2":-89.0444,"dy":0.0017,"dx":0.0017,"nx":28,"ny":28,"refTime":"2024-07-20T09:00:00:Z","depth":0,"parameterNumber":3,"parameterNumberName":"V-component_of_WINDS"},"data":[0,0,0,0,0,0,0,0,0,0,0,0,0,0,0,0,0,0,0,0,0,0,0,0,0,0,0,0,0,0,0,0,0,0,0,0,0,0,0,0,0,0,0,0,0,0,0,0,0,0,0,0,0,0,0,0,0,0,6.0609,6.0609,0,6.059,6.059,6.059,6.0495,6.0493,6.049,6.0488,6.0471,6.0472,6.0474,0,0,0,0,0,0,0,0,0,0,0,0,0,6.0564,6.0566,6.0609,6.0609,6.0609,6.059,6.059,6.059,6.0495,6.0492,6.049,6.0487,6.047,6.0472,6.0474,0,0,0,0,0,0,0,0,0,0,0,0,0,6.0569,6.0566,6.0609,6.0559,6.0555,6.059,6.059,6.059,6.0496,6.0492,6.0489,6.0486,6.047,6.0472,6.0474,6.0557,0,0,6.0482,6.0483,0,0,0,0,0,0,0,0,6.0569,6.057,6.0567,6.0563,6.0558,6.0541,6.0568,6.0579,6.0497,6.0518,6.0488,6.0484,6.0497,6.0497,6.0501,6.0557,6.0556,6.0482,6.0484,6.0485,6.0485,0,0,0,0,0,0,0,6.0568,6.0571,6.0602,6.0567,6.0561,6.0538,6.0535,6.057,6.0527,6.0516,6.0509,6.0508,6.0494,6.0499,6.05,6.0556,6.0482,6.0484,6.0486,6.0487,6.0678,6.0681,0,0,0,0,0,0,6.0575,6.0571,6.0602,6.0601,6.0555,6.0542,6.0538,6.055,6.0526,6.0519,6.0511,6.0504,6.0496,6.0497,6.0499,6.0594,6.0485,6.0487,6.0488,6.0674,6.0678,6.0682,0,0,0,0,0,0,6.0574,6.0579,6.0603,6.0584,6.0586,6.0546,6.056,6.0551,6.0556,6.0522,6.0514,6.0524,6.0494,6.0496,6.0543,6.0592,6.0488,6.049,6.067,6.0675,6.068,6.0785,0,0,0,0,0,0,6.0574,6.0579,6.061,6.0586,6.0587,6.0648,6.0563,6.0554,6.0561,6.0551,6.0532,6.0526,6.0491,6.054,6.0546,6.0593,6.0492,6.0665,6.0672,6.0679,6.0777,6.0793,6.0807,0,0,0,0,0,6.0572,6.0641,6.0612,6.0616,6.0625,6.0651,6.0651,6.0609,6.0565,6.0596,6.0574,6.0527,6.0586,6.0546,6.0551,6.0601,6.0662,6.067,6.0678,6.077,6.079,6.0807,0,0,0,0,0,0,6.0673,6.0637,6.0604,6.0667,6.0663,6.0635,6.0672,6.0632,6.064,6.0631,6.0579,6.0576,6.0631,6.0621,6.0577,6.0679,6.0616,6.0626,6.0684,6.0703,6.0718,6.0719,6.0494,0,0,0,0,0,6.0702,6.0726,6.0693,6.0752,6.0751,6.0712,6.0722,6.069,6.0683,6.0681,6.0663,6.0659,6.0676,6.0689,6.0703,6.0775,6.077,6.0812,6.0827,6.084,6.0849,6.0885,6.0903,6.0709,6.0709,6.0709,0,0,6.0763,6.0746,6.0765,6.0771,6.0764,6.079,6.0711,6.0742,6.0761,6.0686,6.0729,6.0716,6.0708,6.0768,6.0794,6.0761,6.0901,6.085,6.086,6.0862,6.0895,6.0914,6.093,6.0714,6.0713,6.0713,0,0,6.0887,6.0877,6.0924,6.0918,6.0908,6.0882,6.0893,6.0871,6.0859,6.0902,6.0846,6.0868,6.09,6.0896,6.0898,6.1021,6.0978,6.1027,6.1106,6.1142,6.1158,6.1171,6.1214,6.123,6.1036,6.1036,6.1037,0,6.0965,6.1001,6.0954,6.0988,6.0992,6.0925,6.0972,6.0969,6.0965,6.097,6.0933,6.0971,6.0961,6.1019,6.1048,6.1053,6.1064,6.1029,6.1159,6.1172,6.1184,6.1224,6.1241,6.1042,6.1042,6.1041,6.1041,0,6.1096,6.1122,6.1161,6.1157,6.1166,6.1207,6.1167,6.1182,6.1149,6.1127,6.1171,6.1157,6.1167,6.1178,6.1147,6.1232,6.1212,6.1168,6.1103,6.1209,6.1246,6.1262,6.1051,6.1049,6.1047,6.1046,0,0,6.1283,6.1252,6.1267,6.1264,6.1248,6.1267,6.1305,6.1314,6.1327,6.1327,6.1357,6.1385,6.1344,6.1347,6.1315,6.1347,6.1444,6.1299,6.1298,6.1326,6.1536,6.1568,6.1587,6.1415,6.1418,6.142,6.1536,0,6.1401,6.1463,6.1422,6.149,6.1513,6.145,6.1482,6.1476,6.1457,6.1474,6.1452,6.1472,6.1417,6.1419,6.1447,6.1426,6.1485,6.1417,6.1443,6.1445,6.1446,6.1607,6.1641,6.1751,6.1551,6.1553,6.1555,0,6.1548,6.1552,6.1623,6.16,6.1608,6.1639,6.1643,6.166,6.1652,6.1635,6.1638,6.1598,6.1633,6.157,6.1618,6.1573,6.1581,6.1573,6.1576,6.1576,6.1506,6.1611,6.1786,6.1802,6.1578,6.1576,6.1574,0,6.1676,6.17,6.1745,6.1744,6.172,6.1742,6.1733,6.1721,6.1729,6.1733,6.1738,6.1747,6.1752,6.176,6.1723,6.168,6.1776,6.171,6.1764,6.1765,6.1786,6.1785,6.1964,6.1793,6.1793,6.1793,6.1792,0,6.1812,6.1858,6.1802,6.183,6.1879,6.1831,6.1881,6.1866,6.1855,6.1879,6.1825,6.1849,6.1799,6.1818,6.179,6.1834,6.1837,6.1824,6.1816,6.1829,6.183,6.1833,6.1824,6.1797,6.1796,6.1795,6.1794,0,6.1964,6.1928,6.1973,6.1946,6.194,6.1977,6.1954,6.1979,6.1955,6.1986,6.1991,6.1954,6.1973,6.1937,6.1953,6.1933,6.1995,6.1975,6.1998,6.1992,6.2047,6.2042,6.2233,6.2256,6.2071,6.2073,6.2075,0,6.2053,6.2086,6.2062,6.2073,6.2067,6.2087,6.2094,6.2048,6.2058,6.2051,6.2077,6.2091,6.21,6.2134,6.2109,6.212,6.21,6.2166,6.2101,6.2113,6.21,6.2098,6.2101,6.2179,6.2182,6.2183,6.2185,0,6.2214,6.2194,6.2206,6.2212,6.2222,6.2225,6.2224,6.2237,6.2188,6.2202,6.2221,6.2228,6.2242,6.2257,6.2262,6.2254,6.2212,6.2206,6.2218,6.2231,6.2243,6.2237,6.2033,6.2201,6.22,6.2199,6.2198,6.2197,6.2336,6.2362,6.2349,6.2364,6.2358,6.2359,6.238,6.2359,6.2373,6.238,6.2353,6.2378,6.2368,6.237,6.2366,6.2385,6.2355,6.2374,6.2379,6.2384,6.2393,6.224,6.2386,6.2385,6.2385,6.2384,6.2384,0,6.2494,6.2482,6.2496,6.2496,6.2508,6.2466,6.2463,6.2476,6.2497,6.2492,6.2501,6.2522,6.2537,6.2513,6.2523,6.2543,6.2524,6.2547,6.2545,6.2544,6.2419,6.2406,6.2562,6.2562,6.2562,6.2562,6.2562,6.2562,6.2577,6.2619,6.2598,6.2637,6.2624,6.2647,6.2649,6.2649,6.2643,6.2669,6.268,6.2664,6.2651,6.266,6.2671,6.2664,6.267,6.27,6.2686,6.257,6.2553,6.2536,6.2524,6.2702,6.2702,6.2809,6.281,6.2811]}]]